DateTime,Index
1990072012,0.0
1990072018,0.0
1990072100,0.0
1990072106,0.0
1990072112,1225.0
1990072118,2025.0
1990072200,2500.0
1990072206,3025.0
1990072212,3600.0
1990072218,4225.0
1990072300,4900.0
1990072306,5625.0
1990072312,6400.0
1990072318,8100.0
1990072400,9025.0
1990072406,9025.0
1990072412,10000.0
1990072418,10000.0
1990072500,10000.0
1990072506,10000.0
1990072512,11025.0
1990072518,11025.0
1990072600,11025.0
1990072606,10000.0
1990072612,10000.0
1990072618,9025.0
1990072700,9025.0
1990072706,8100.0
1990072712,7225.0
1990072718,6400.0
1990072800,6400.0
1990072806,4900.0
1990072812,4225.0
1990072818,3025.0
1990072900,3025.0
1990072906,2025.0
1990072912,1600.0
1990072918,1225.0
1990073000,0.0
1990073006,0.0
1990073012,0.0
